Starlink 11272

operational
NORAD ID: 60723 Int'l Des: 2024-152 Owner: SPXS Country: US Constellation: starlink
LEOCIRCULAR

About Starlink 11272

Description loading...

Live Position

Loading 3D Globe...

Upcoming Passes

Altitude History

Altitude vs Time

uPlot chart will show altitude changes over time

Two-Line Element Set

1 60723U 24152D 25259.99849774 -.00004398 00000-0 -31497-4 0 9996
2 60723 53.1593 252.5828 0000781 94.3121 265.7986 15.69688386 61554
Epoch: Sep 16, 2025 • Age: 21 hours

Current Status

Altitude 366.8 km
Velocity 7.69 km/s
Sub-Earth Point -23.40°S, 86.12°W
Launch Date Aug 28, 2024
Age 1 years
Type internet

Technical Details

Classification Payload
Mass 960.00 kg
Dry Mass 910.00 kg
Total Mass 960.00 kg
Length 0.30 m
Diameter 4.10 m
Span 29.00 m
Shape Box + pan
Manufacturer SPXS
Bus Type Starlink V2MD
Phase Status In Orbit
Owner/State SPXS/US

Large Constellations

Loading constellations...